Time,TemperatureF,DewpointF,PressureIn,WindDirection,WindDirectionDegrees,WindSpeedMPH,WindSpeedGustMPH,Humidity,HourlyPrecipIn,Conditions,Clouds,dailyrainin,SoftwareType,DateUTC
2013-06-06 00:03:00,56.0,55.0,29.93,WSW,252,0.0,-999.0,98,-99.99,,,-99.99,,2013-06-06 04:03:00,
2013-06-06 00:13:00,56.0,55.0,29.93,WSW,252,0.0,-999.0,98,-99.99,,,-99.99,,2013-06-06 04:13:00,
2013-06-06 00:23:00,56.0,55.0,29.93,North,9,0.0,-999.0,98,-99.99,,,-99.99,,2013-06-06 04:23:00,
2013-06-06 00:33:00,56.0,55.0,29.91,ESE,113,0.0,-999.0,97,-99.99,,,-99.99,,2013-06-06 04:33:00,
2013-06-06 00:42:00,56.0,55.0,29.92,SE,136,2.0,-999.0,95,-99.99,,,-99.99,,2013-06-06 04:42:00,
2013-06-06 00:53:00,56.0,55.0,29.92,SE,136,2.0,-999.0,95,-99.99,,,-99.99,,2013-06-06 04:53:00,
2013-06-06 01:02:00,56.0,55.0,29.90,ESE,104,1.0,-999.0,96,-99.99,,,-99.99,,2013-06-06 05:02:00,
2013-06-06 01:12:00,56.0,55.0,29.90,ESE,104,1.0,-999.0,96,-99.99,,,-99.99,,2013-06-06 05:12:00,
2013-06-06 01:23:00,56.0,55.0,29.90,East,85,0.0,-999.0,96,-99.99,,,-99.99,,2013-06-06 05:23:00,
2013-06-06 01:32:00,56.0,55.0,29.88,ENE,68,1.0,-999.0,97,-99.99,,,-99.99,,2013-06-06 05:32:00,
2013-06-06 01:42:00,56.0,55.0,29.88,ENE,68,1.0,-999.0,97,-99.99,,,-99.99,,2013-06-06 05:42:00,
2013-06-06 01:52:00,56.0,55.0,29.88,East,94,1.0,-999.0,97,-99.99,,,-99.99,,2013-06-06 05:52:00,
2013-06-06 02:02:00,57.0,56.0,29.88,SE,144,0.0,-999.0,95,-99.99,,,-99.99,,2013-06-06 06:02:00,
2013-06-06 02:12:00,57.0,56.0,29.88,SE,144,0.0,-999.0,95,-99.99,,,-99.99,,2013-06-06 06:12:00,
2013-06-06 02:22:00,57.0,55.0,29.88,SE,134,1.0,-999.0,92,-99.99,,,-99.99,,2013-06-06 06:22:00,
2013-06-06 02:33:00,57.0,55.0,29.86,ESE,123,0.0,-999.0,94,-99.99,,,-99.99,,2013-06-06 06:33:00,
2013-06-06 02:42:00,57.0,55.0,29.86,ESE,123,0.0,-999.0,94,-99.99,,,-99.99,,2013-06-06 06:42:00,
2013-06-06 02:52:00,58.0,57.0,29.85,SE,143,1.0,-999.0,96,-99.99,,,-99.99,,2013-06-06 06:52:00,
2013-06-06 03:02:00,58.0,57.0,29.85,East,88,2.0,-999.0,97,-99.99,,,-99.99,,2013-06-06 07:02:00,
2013-06-06 03:12:00,58.0,57.0,29.85,East,88,2.0,-999.0,97,-99.99,,,-99.99,,2013-06-06 07:12:00,
2013-06-06 03:22:00,58.0,57.0,29.85,East,86,2.0,-999.0,96,-99.99,,,-99.99,,2013-06-06 07:22:00,
2013-06-06 03:32:00,58.0,57.0,29.85,ESE,104,1.0,-999.0,97,-99.99,,,-99.99,,2013-06-06 07:32:00,
2013-06-06 03:42:00,58.0,57.0,29.85,ESE,104,1.0,-999.0,97,-99.99,,,-99.99,,2013-06-06 07:42:00,
2013-06-06 03:52:00,58.0,57.0,29.84,ESE,109,1.0,-999.0,97,-99.99,,,-99.99,,2013-06-06 07:52:00,
2013-06-06 04:02:00,58.0,57.0,29.83,ESE,123,1.0,-999.0,97,-99.99,,,-99.99,,2013-06-06 08:02:00,
2013-06-06 04:12:00,58.0,57.0,29.83,ESE,123,1.0,-999.0,97,-99.99,,,-99.99,,2013-06-06 08:12:00,
2013-06-06 04:22:00,57.0,56.0,29.83,ESE,109,1.0,-999.0,97,-99.99,,,-99.99,,2013-06-06 08:22:00,
2013-06-06 04:32:00,57.0,56.0,29.82,ESE,107,1.0,-999.0,97,-99.99,,,-99.99,,2013-06-06 08:32:00,
2013-06-06 04:42:00,57.0,56.0,29.82,ESE,111,1.0,-999.0,98,-99.99,,,-99.99,,2013-06-06 08:42:00,
2013-06-06 04:52:00,57.0,56.0,29.82,ESE,111,1.0,-999.0,98,-99.99,,,-99.99,,2013-06-06 08:52:00,
2013-06-06 05:02:00,57.0,56.0,29.82,ESE,102,1.0,-999.0,98,-99.99,,,-99.99,,2013-06-06 09:02:00,
2013-06-06 05:12:00,57.0,56.0,29.82,ESE,102,1.0,-999.0,98,-99.99,,,-99.99,,2013-06-06 09:12:00,
2013-06-06 05:22:00,57.0,56.0,29.81,East,92,1.0,-999.0,98,-99.99,,,-99.99,,2013-06-06 09:22:00,
2013-06-06 05:33:00,57.0,56.0,29.82,East,86,1.0,-999.0,98,-99.99,,,-99.99,,2013-06-06 09:33:00,
2013-06-06 05:43:00,57.0,56.0,29.82,East,86,1.0,-999.0,98,-99.99,,,-99.99,,2013-06-06 09:43:00,
2013-06-06 05:53:00,57.0,56.0,29.82,ENE,58,1.0,-999.0,97,-99.99,,,-99.99,,2013-06-06 09:53:00,
2013-06-06 06:03:00,57.0,56.0,29.83,ESE,113,1.0,-999.0,97,-99.99,,,-99.99,,2013-06-06 10:03:00,
2013-06-06 06:12:00,57.0,56.0,29.83,SE,126,1.0,-999.0,97,-99.99,,,-99.99,,2013-06-06 10:12:00,
2013-06-06 06:23:00,57.0,56.0,29.83,SE,126,1.0,-999.0,97,-99.99,,,-99.99,,2013-06-06 10:23:00,
2013-06-06 06:33:00,57.0,56.0,29.83,ESE,113,0.0,-999.0,97,-99.99,,,-99.99,,2013-06-06 10:33:00,
2013-06-06 06:42:00,57.0,56.0,29.83,ESE,113,0.0,-999.0,97,-99.99,,,-99.99,,2013-06-06 10:42:00,
2013-06-06 06:52:00,57.0,56.0,29.84,ESE,109,1.0,-999.0,98,-99.99,,,-99.99,,2013-06-06 10:52:00,
2013-06-06 07:02:00,57.0,56.0,29.84,ESE,111,1.0,-999.0,98,-99.99,,,-99.99,,2013-06-06 11:02:00,
2013-06-06 07:12:00,57.0,56.0,29.84,ESE,111,1.0,-999.0,98,-99.99,,,-99.99,,2013-06-06 11:12:00,
2013-06-06 07:23:00,57.0,56.0,29.84,ESE,110,1.0,-999.0,98,-99.99,,,-99.99,,2013-06-06 11:23:00,
2013-06-06 07:32:00,57.0,57.0,29.85,SE,141,1.0,-999.0,99,-99.99,,,-99.99,,2013-06-06 11:32:00,
2013-06-06 07:42:00,57.0,57.0,29.85,SE,141,1.0,-999.0,99,-99.99,,,-99.99,,2013-06-06 11:42:00,
2013-06-06 07:52:00,57.0,57.0,29.84,ESE,117,1.0,-999.0,99,-99.99,,,-99.99,,2013-06-06 11:52:00,
2013-06-06 08:03:00,58.0,58.0,29.83,ESE,120,1.0,-999.0,99,-99.99,,,-99.99,,2013-06-06 12:03:00,
2013-06-06 08:13:00,58.0,58.0,29.83,ESE,120,1.0,-999.0,99,-99.99,,,-99.99,,2013-06-06 12:13:00,
2013-06-06 08:23:00,58.0,58.0,29.84,SE,130,2.0,-999.0,99,-99.99,,,-99.99,,2013-06-06 12:23:00,
2013-06-06 08:33:00,58.0,58.0,29.86,SE,135,1.0,-999.0,99,-99.99,,,-99.99,,2013-06-06 12:33:00,
2013-06-06 08:43:00,59.0,59.0,29.85,ESE,108,1.0,-999.0,99,-99.99,,,-99.99,,2013-06-06 12:43:00,
2013-06-06 08:52:00,59.0,59.0,29.85,ESE,108,1.0,-999.0,99,-99.99,,,-99.99,,2013-06-06 12:52:00,
2013-06-06 09:03:00,59.0,59.0,29.86,SE,131,1.0,-999.0,99,-99.99,,,-99.99,,2013-06-06 13:03:00,
2013-06-06 09:13:00,59.0,59.0,29.86,SE,131,1.0,-999.0,99,-99.99,,,-99.99,,2013-06-06 13:13:00,
2013-06-06 09:23:00,59.0,59.0,29.86,ENE,74,1.0,-999.0,99,-99.99,,,-99.99,,2013-06-06 13:23:00,
2013-06-06 09:33:00,59.0,59.0,29.86,ESE,106,1.0,-999.0,99,-99.99,,,-99.99,,2013-06-06 13:33:00,
2013-06-06 09:43:00,59.0,59.0,29.86,ESE,106,1.0,-999.0,99,-99.99,,,-99.99,,2013-06-06 13:43:00,
2013-06-06 09:52:00,59.0,59.0,29.86,SE,127,1.0,-999.0,99,-99.99,,,-99.99,,2013-06-06 13:52:00,
2013-06-06 10:03:00,59.0,59.0,29.86,ESE,107,0.0,-999.0,99,-99.99,,,-99.99,,2013-06-06 14:03:00,
2013-06-06 10:13:00,59.0,59.0,29.86,ESE,107,0.0,-999.0,99,-99.99,,,-99.99,,2013-06-06 14:13:00,
2013-06-06 10:23:00,59.0,59.0,29.86,SSE,158,1.0,-999.0,99,-99.99,,,-99.99,,2013-06-06 14:23:00,
2013-06-06 10:33:00,59.0,59.0,29.85,SSE,158,0.0,-999.0,99,-99.99,,,-99.99,,2013-06-06 14:33:00,
2013-06-06 10:43:00,59.0,59.0,29.85,SSE,158,0.0,-999.0,99,-99.99,,,-99.99,,2013-06-06 14:43:00,
2013-06-06 10:52:00,60.0,60.0,29.85,SSE,168,1.0,-999.0,99,-99.99,,,-99.99,,2013-06-06 14:52:00,
2013-06-06 11:03:00,60.0,60.0,29.85,ESE,111,1.0,-999.0,99,-99.99,,,-99.99,,2013-06-06 15:03:00,
2013-06-06 11:13:00,60.0,60.0,29.85,ESE,111,1.0,-999.0,99,-99.99,,,-99.99,,2013-06-06 15:13:00,
2013-06-06 11:23:00,60.0,60.0,29.85,SSE,160,1.0,-999.0,99,-99.99,,,-99.99,,2013-06-06 15:23:00,
2013-06-06 11:33:00,60.0,60.0,29.86,SE,132,1.0,-999.0,99,-99.99,,,-99.99,,2013-06-06 15:33:00,
2013-06-06 11:43:00,60.0,60.0,29.86,SE,132,1.0,-999.0,99,-99.99,,,-99.99,,2013-06-06 15:43:00,
2013-06-06 11:53:00,60.0,59.0,29.87,SE,142,2.0,-999.0,98,-99.99,,,-99.99,,2013-06-06 15:53:00,
2013-06-06 12:03:00,61.0,60.0,29.86,South,169,0.0,-999.0,98,-99.99,,,-99.99,,2013-06-06 16:03:00,
2013-06-06 12:13:00,61.0,60.0,29.86,South,169,0.0,-999.0,98,-99.99,,,-99.99,,2013-06-06 16:13:00,
2013-06-06 12:23:00,61.0,60.0,29.85,SSW,194,0.0,-999.0,98,-99.99,,,-99.99,,2013-06-06 16:23:00,
2013-06-06 12:33:00,61.0,60.0,29.85,SE,145,1.0,-999.0,98,-99.99,,,-99.99,,2013-06-06 16:33:00,
2013-06-06 12:44:00,61.0,60.0,29.85,SE,145,1.0,-999.0,98,-99.99,,,-99.99,,2013-06-06 16:44:00,
2013-06-06 12:52:00,62.0,61.0,29.84,SE,127,1.0,-999.0,98,-99.99,,,-99.99,,2013-06-06 16:52:00,
2013-06-06 13:03:00,62.0,61.0,29.83,SSE,149,1.0,-999.0,97,-99.99,,,-99.99,,2013-06-06 17:03:00,
2013-06-06 13:13:00,62.0,61.0,29.83,SSE,149,1.0,-999.0,97,-99.99,,,-99.99,,2013-06-06 17:13:00,
2013-06-06 13:23:00,62.0,61.0,29.83,WSW,258,0.0,-999.0,95,-99.99,,,-99.99,,2013-06-06 17:23:00,
2013-06-06 13:33:00,63.0,62.0,29.83,SE,142,1.0,-999.0,96,-99.99,,,-99.99,,2013-06-06 17:33:00,
2013-06-06 13:43:00,63.0,62.0,29.83,SE,142,1.0,-999.0,96,-99.99,,,-99.99,,2013-06-06 17:43:00,
2013-06-06 13:52:00,63.0,62.0,29.82,SSE,168,0.0,-999.0,96,-99.99,,,-99.99,,2013-06-06 17:52:00,
2013-06-06 14:03:00,64.0,63.0,29.80,SSE,161,1.0,-999.0,95,-99.99,,,-99.99,,2013-06-06 18:03:00,
2013-06-06 14:13:00,64.0,63.0,29.80,SSE,161,1.0,-999.0,95,-99.99,,,-99.99,,2013-06-06 18:13:00,
2013-06-06 14:23:00,64.0,62.0,29.80,ESE,104,1.0,-999.0,94,-99.99,,,-99.99,,2013-06-06 18:23:00,
2013-06-06 14:33:00,63.0,62.0,29.80,East,101,1.0,-999.0,96,-99.99,,,-99.99,,2013-06-06 18:33:00,
2013-06-06 14:43:00,63.0,62.0,29.80,East,101,1.0,-999.0,96,-99.99,,,-99.99,,2013-06-06 18:43:00,
2013-06-06 14:53:00,64.0,63.0,29.80,ESE,109,1.0,-999.0,95,-99.99,,,-99.99,,2013-06-06 18:53:00,
2013-06-06 15:03:00,63.0,62.0,29.79,SE,136,1.0,-999.0,97,-99.99,,,-99.99,,2013-06-06 19:03:00,
2013-06-06 15:13:00,63.0,62.0,29.79,SE,136,1.0,-999.0,97,-99.99,,,-99.99,,2013-06-06 19:13:00,
2013-06-06 15:23:00,62.0,61.0,29.79,SSE,156,2.0,-999.0,98,-99.99,,,-99.99,,2013-06-06 19:23:00,
2013-06-06 15:43:00,61.0,60.0,29.80,SSE,161,3.0,-999.0,98,-99.99,,,-99.99,,2013-06-06 19:43:00,
2013-06-06 15:52:00,62.0,62.0,29.80,SW,227,1.0,-999.0,99,-99.99,,,-99.99,,2013-06-06 19:52:00,
2013-06-06 16:03:00,62.0,61.0,29.79,SE,128,1.0,-999.0,98,-99.99,,,-99.99,,2013-06-06 20:03:00,
2013-06-06 16:13:00,62.0,61.0,29.79,SE,128,1.0,-999.0,98,-99.99,,,-99.99,,2013-06-06 20:13:00,
2013-06-06 16:23:00,62.0,62.0,29.79,SSE,165,1.0,-999.0,99,-99.99,,,-99.99,,2013-06-06 20:23:00,
2013-06-06 16:33:00,62.0,61.0,29.79,SSE,167,1.0,-999.0,98,-99.99,,,-99.99,,2013-06-06 20:33:00,
2013-06-06 16:42:00,62.0,61.0,29.79,SSE,167,1.0,-999.0,98,-99.99,,,-99.99,,2013-06-06 20:42:00,
2013-06-06 16:53:00,62.0,61.0,29.78,SSE,148,2.0,-999.0,98,-99.99,,,-99.99,,2013-06-06 20:53:00,
2013-06-06 17:03:00,62.0,62.0,29.78,ESE,102,0.0,-999.0,99,-99.99,,,-99.99,,2013-06-06 21:03:00,
2013-06-06 17:13:00,62.0,62.0,29.78,ESE,102,0.0,-999.0,99,-99.99,,,-99.99,,2013-06-06 21:13:00,
2013-06-06 17:23:00,62.0,61.0,29.78,SSE,150,1.0,-999.0,98,-99.99,,,-99.99,,2013-06-06 21:23:00,
2013-06-06 17:33:00,62.0,61.0,29.77,SSE,148,1.0,-999.0,98,-99.99,,,-99.99,,2013-06-06 21:33:00,
2013-06-06 17:43:00,62.0,61.0,29.77,SSE,148,1.0,-999.0,98,-99.99,,,-99.99,,2013-06-06 21:43:00,
2013-06-06 17:53:00,62.0,61.0,29.77,SSW,211,1.0,-999.0,98,-99.99,,,-99.99,,2013-06-06 21:53:00,
2013-06-06 18:03:00,62.0,61.0,29.77,SSE,167,0.0,-999.0,98,-99.99,,,-99.99,,2013-06-06 22:03:00,
2013-06-06 18:13:00,62.0,61.0,29.77,SSE,167,0.0,-999.0,98,-99.99,,,-99.99,,2013-06-06 22:13:00,
2013-06-06 18:23:00,62.0,62.0,29.77,SSE,148,1.0,-999.0,99,-99.99,,,-99.99,,2013-06-06 22:23:00,
2013-06-06 18:33:00,63.0,63.0,29.76,SE,129,1.0,-999.0,99,-99.99,,,-99.99,,2013-06-06 22:33:00,
2013-06-06 18:43:00,63.0,63.0,29.76,SE,129,1.0,-999.0,99,-99.99,,,-99.99,,2013-06-06 22:43:00,
2013-06-06 18:53:00,63.0,62.0,29.75,ESE,108,0.0,-999.0,98,-99.99,,,-99.99,,2013-06-06 22:53:00,
2013-06-06 19:03:00,62.0,61.0,29.76,East,80,1.0,-999.0,98,-99.99,,,-99.99,,2013-06-06 23:03:00,
2013-06-06 19:13:00,62.0,61.0,29.76,East,80,1.0,-999.0,98,-99.99,,,-99.99,,2013-06-06 23:13:00,
2013-06-06 19:22:00,62.0,62.0,29.76,ESE,107,1.0,-999.0,99,-99.99,,,-99.99,,2013-06-06 23:22:00,
2013-06-06 19:33:00,62.0,62.0,29.75,SE,138,0.0,-999.0,99,-99.99,,,-99.99,,2013-06-06 23:33:00,
2013-06-06 19:43:00,62.0,62.0,29.75,SE,138,0.0,-999.0,99,-99.99,,,-99.99,,2013-06-06 23:43:00,
2013-06-06 19:52:00,62.0,62.0,29.75,ESE,109,1.0,-999.0,99,-99.99,,,-99.99,,2013-06-06 23:52:00,
2013-06-06 20:02:00,61.0,61.0,29.75,ESE,118,1.0,-999.0,99,-99.99,,,-99.99,,2013-06-07 00:02:00,
2013-06-06 20:13:00,61.0,61.0,29.75,ESE,118,1.0,-999.0,99,-99.99,,,-99.99,,2013-06-07 00:13:00,
2013-06-06 20:22:00,61.0,61.0,29.75,SSE,152,0.0,-999.0,99,-99.99,,,-99.99,,2013-06-07 00:22:00,
2013-06-06 20:32:00,61.0,61.0,29.75,ENE,73,0.0,-999.0,99,-99.99,,,-99.99,,2013-06-07 00:32:00,
2013-06-06 20:42:00,61.0,61.0,29.75,ENE,73,0.0,-999.0,99,-99.99,,,-99.99,,2013-06-07 00:42:00,
2013-06-06 20:52:00,61.0,61.0,29.75,ESE,112,1.0,-999.0,99,-99.99,,,-99.99,,2013-06-07 00:52:00,
2013-06-06 21:03:00,61.0,61.0,29.75,SE,140,1.0,-999.0,99,-99.99,,,-99.99,,2013-06-07 01:03:00,
2013-06-06 21:12:00,61.0,61.0,29.75,SE,140,1.0,-999.0,99,-99.99,,,-99.99,,2013-06-07 01:12:00,
2013-06-06 21:22:00,61.0,61.0,29.74,East,94,1.0,-999.0,99,-99.99,,,-99.99,,2013-06-07 01:22:00,
2013-06-06 21:32:00,60.0,60.0,29.74,East,101,1.0,-999.0,99,-99.99,,,-99.99,,2013-06-07 01:32:00,
2013-06-06 21:42:00,60.0,60.0,29.74,East,101,1.0,-999.0,99,-99.99,,,-99.99,,2013-06-07 01:42:00,
2013-06-06 21:52:00,60.0,60.0,29.74,East,88,0.0,-999.0,99,-99.99,,,-99.99,,2013-06-07 01:52:00,
2013-06-06 22:02:00,60.0,60.0,29.74,ESE,117,1.0,-999.0,99,-99.99,,,-99.99,,2013-06-07 02:02:00,
2013-06-06 22:12:00,60.0,60.0,29.74,ESE,117,1.0,-999.0,99,-99.99,,,-99.99,,2013-06-07 02:12:00,
2013-06-06 22:22:00,60.0,60.0,29.74,ENE,62,0.0,-999.0,99,-99.99,,,-99.99,,2013-06-07 02:22:00,
2013-06-06 22:32:00,60.0,60.0,29.73,East,96,1.0,-999.0,99,-99.99,,,-99.99,,2013-06-07 02:32:00,
2013-06-06 22:42:00,60.0,60.0,29.73,East,96,1.0,-999.0,99,-99.99,,,-99.99,,2013-06-07 02:42:00,
2013-06-06 22:52:00,60.0,60.0,29.74,ESE,119,1.0,-999.0,99,-99.99,,,-99.99,,2013-06-07 02:52:00,
2013-06-06 23:02:00,60.0,60.0,29.74,North,360,1.0,-999.0,99,-99.99,,,-99.99,,2013-06-07 03:02:00,
2013-06-06 23:12:00,60.0,60.0,29.74,North,360,1.0,-999.0,99,-99.99,,,-99.99,,2013-06-07 03:12:00,
2013-06-06 23:22:00,60.0,60.0,29.74,North,360,2.0,-999.0,99,-99.99,,,-99.99,,2013-06-07 03:22:00,
2013-06-06 23:33:00,60.0,60.0,29.74,North,360,0.0,-999.0,99,-99.99,,,-99.99,,2013-06-07 03:33:00,
2013-06-06 23:43:00,60.0,60.0,29.74,North,360,0.0,-999.0,99,-99.99,,,-99.99,,2013-06-07 03:43:00,
2013-06-06 23:53:00,60.0,60.0,29.74,North,360,0.0,-999.0,99,-99.99,,,-99.99,,2013-06-07 03:53:00,